Location: Amsterdam
(30.7274°N, 84.4357°W)
Time: 21:47:54
(UTC+00:00)

Tiros 1 despin weight - Pass Details

Date: 23 February 2026
Orbit: 556 x 593 km, 48.2° (Epoch: 9 March)

Event Time Altitude Azimuth Distance (km) Brightness Sun altitude
Rises 17:00:36 0° 219° (SW) 2,766 ? 47.9°
Reaches altitude 10° 17:02:54 10° 216° (SW) 1,864 ? 48.0°
Maximum altitude 17:07:05 59° 136° (SE) 652 ? 48.3°
Drops below altitude 10° 17:11:15 10° 57° (ENE) 1,850 ? 48.5°
Sets 17:13:31 0° 53° (NE) 2,743 ? 48.6°
